Webcam 1 more information Webcam 1


Webcam 2 more information Webcam 2


altri nostri siti meteo:

TortoretometeolidoSito sul meteo

TortoretometeolidoSito sul meteo

Pomeziameteo 1Sito sul meteo

Pomeziameteo DashboardSito sul meteo

Caput FrigorisSito sul meteo

BarcellonameteoSito sul meteo

MeteoipassiSito sul meteo

ViterbometeoSito sul meteo

CastelnuovovomanometeoSito sul meteo



Nessuna attenzione particolare richiesta.    Non ci sono allerte meteo

Weather Underground Storia pagina Testo

Quotidiano Riepilogo per maggio 26, 2018 Unita:  Metrico    Inglese   Entrambi
« Indietro Day
Avanti Day »
Quotidiano Settimanale mensile Annuale Personalizzato
  Attuale: Max: Min: Media:
Temperatura: -3.3 °C -17.8 °C -7.1 °C -4.7 °C
P.to Rugiada: -6.4 °C -17.8 °C -8.7 °C -7.5 °C
Umidita: 71 % Humidity % 55 % 74 %
Vel. Vento: 2.6 km/h 0 km/h 0 km/h 2.1 km/h
Raffiche: 18.2 km/h 0 km/h - -
Vento:NNE - - SW
Pressione: 34462.7 hPa 0 hPa 34384.8 hPa -
Precipitazioni: 0 mm      
Historical Graphs
 
 
Dati di tabella per il maggio 26, 2018
Tempo Temperatura P.to Rugiada Pressione Vento Vel. Vento Raffiche Umidita Tasso delle precipitazioni (oraria)
-17.8 °C -17.8 °C 0 hPa Calm     Humidity % 0 mm
00:00 -5.9 °C -7.4 °C 34418.7 hPa Calm     85 % 0 mm
00:05 -5.9 °C -7.4 °C 34418.7 hPa Calm     85 % 0 mm
00:10 -5.9 °C -7.4 °C 34418.7 hPa Calm     85 % 0 mm
00:15 -5.9 °C -7.4 °C 34418.7 hPa Calm     85 % 0 mm
00:20 -5.9 °C -7.4 °C 34418.7 hPa Calm     85 % 0 mm
00:25 -5.9 °C -7.3 °C 34418.7 hPa Calm     86 % 0 mm
00:30 -5.9 °C -7.3 °C 34418.7 hPa Calm   2.6 km/h 86 % 0 mm
00:35 -5.8 °C -7.2 °C 34418.7 hPa Calm     86 % 0 mm
00:40 -5.9 °C -7.3 °C 34405.1 hPa Calm     85 % 0 mm
00:45 -5.9 °C -7.4 °C 34405.1 hPa Calm     85 % 0 mm
00:50 -5.9 °C -7.4 °C 34405.1 hPa Calm   2.6 km/h 85 % 0 mm
00:55 -6 °C -7.3 °C 34418.7 hPa Calm     86 % 0 mm
01:00 -6 °C -7.3 °C 34418.7 hPa Calm     86 % 0 mm
01:05 -6 °C -7.5 °C 34405.1 hPa WSW 7.7 km/h 12.9 km/h 85 % 0 mm
01:10 -6.1 °C -7.6 °C 34405.1 hPa Calm   12.9 km/h 85 % 0 mm
01:15 -6.1 °C -7.6 °C 34405.1 hPa Calm     85 % 0 mm
01:20 -6.2 °C -7.7 °C 34405.1 hPa Calm     85 % 0 mm
01:25 -6.2 °C -7.7 °C 34405.1 hPa Calm     85 % 0 mm
01:30 -6.2 °C -7.7 °C 34405.1 hPa Calm     85 % 0 mm
01:35 -6.2 °C -7.7 °C 34405.1 hPa Calm     85 % 0 mm
01:40 -6.2 °C -7.7 °C 34405.1 hPa Calm     85 % 0 mm
01:45 -6.2 °C -7.7 °C 34405.1 hPa Calm     85 % 0 mm
01:50 -6.2 °C -7.7 °C 34395 hPa Calm     85 % 0 mm
01:55 -6.2 °C -7.7 °C 34395 hPa Calm     85 % 0 mm
02:00 -6.2 °C -7.6 °C 34395 hPa Calm     85 % 0 mm
02:05 -6.1 °C -7.6 °C 34384.8 hPa Calm     85 % 0 mm
02:10 -6.1 °C -7.6 °C 34384.8 hPa Calm     85 % 0 mm
02:15 -6.1 °C -7.6 °C 34384.8 hPa Calm     85 % 0 mm
02:20 -6.1 °C -7.6 °C 34384.8 hPa Calm     85 % 0 mm
02:25 -6.1 °C -7.6 °C 34384.8 hPa Calm     85 % 0 mm
02:30 -6.1 °C -7.6 °C 34384.8 hPa Calm     85 % 0 mm
02:35 -6.2 °C -7.6 °C 34395 hPa Calm     85 % 0 mm
02:40 -6.2 °C -7.7 °C 34395 hPa Calm   2.6 km/h 85 % 0 mm
02:45 -6.2 °C -7.7 °C 34395 hPa Calm     85 % 0 mm
02:50 -6.3 °C -7.7 °C 34395 hPa Calm     85 % 0 mm
02:55 -6.3 °C -7.8 °C 34395 hPa Calm     85 % 0 mm
03:00 -6.3 °C -7.8 °C 34395 hPa Calm     85 % 0 mm
03:05 -6.3 °C -7.9 °C 34395 hPa Calm     84 % 0 mm
03:10 -6.3 °C -7.7 °C 34395 hPa Calm     85 % 0 mm
03:15 -6.3 °C -7.7 °C 34405.1 hPa Calm     85 % 0 mm
03:20 -6.3 °C -7.7 °C 34405.1 hPa Calm     85 % 0 mm
03:25 -6.3 °C -7.8 °C 34405.1 hPa Calm     85 % 0 mm
03:30 -6.3 °C -7.9 °C 34405.1 hPa Calm     84 % 0 mm
03:35 -6.4 °C -7.9 °C 34405.1 hPa Calm     85 % 0 mm
03:40 -6.6 °C -8.1 °C 34405.1 hPa Calm     84 % 0 mm
03:45 -6.6 °C -8.2 °C 34405.1 hPa Calm     84 % 0 mm
03:50 -6.7 °C -8.3 °C 34405.1 hPa Calm     84 % 0 mm
03:55 -6.7 °C -8.3 °C 34405.1 hPa Calm     84 % 0 mm
04:00 -6.7 °C -8.3 °C 34405.1 hPa Calm     84 % 0 mm
04:05 -6.8 °C -8.3 °C 34418.7 hPa Calm     84 % 0 mm
04:10 -6.8 °C -8.4 °C 34418.7 hPa Calm     84 % 0 mm
04:15 -6.8 °C -8.4 °C 34418.7 hPa Calm     84 % 0 mm
04:20 -6.8 °C -8.4 °C 34418.7 hPa Calm     84 % 0 mm
04:25 -6.8 °C -8.4 °C 34418.7 hPa Calm     84 % 0 mm
04:30 -6.8 °C -8.4 °C 34418.7 hPa Calm     84 % 0 mm
04:35 -6.8 °C -8.4 °C 34418.7 hPa Calm     84 % 0 mm
04:40 -6.8 °C -8.5 °C 34418.7 hPa Calm     83 % 0 mm
04:45 -6.8 °C -8.5 °C 34418.7 hPa Calm     83 % 0 mm
04:50 -6.8 °C -8.5 °C 34418.7 hPa Calm     83 % 0 mm
04:55 -6.8 °C -8.5 °C 34418.7 hPa Calm     83 % 0 mm
05:00 -6.9 °C -8.7 °C 34418.7 hPa Calm     82 % 0 mm
05:05 -6.9 °C -8.7 °C 34428.8 hPa Calm     82 % 0 mm
05:10 -6.9 °C -8.6 °C 34428.8 hPa Calm     83 % 0 mm
05:15 -7 °C -8.7 °C 34428.8 hPa Calm     83 % 0 mm
05:20 -7 °C -8.7 °C 34428.8 hPa Calm     83 % 0 mm
05:25 -7 °C -8.7 °C 34428.8 hPa Calm     83 % 0 mm
05:30 -7.1 °C -8.6 °C 34428.8 hPa Calm     84 % 0 mm
05:35 -7 °C -8.6 °C 34428.8 hPa Calm     84 % 0 mm
05:40 -7 °C -8.6 °C 34428.8 hPa Calm     84 % 0 mm
05:45 -6.9 °C -8.5 °C 34428.8 hPa Calm     84 % 0 mm
05:50 -6.9 °C -8.5 °C 34428.8 hPa Calm     84 % 0 mm
05:55 -6.9 °C -8.6 °C 34428.8 hPa Calm     83 % 0 mm
06:00 -6.9 °C -8.6 °C 34428.8 hPa Calm     83 % 0 mm
06:05 -6.8 °C -8.5 °C 34428.8 hPa Calm     83 % 0 mm
06:10 -6.8 °C -8.4 °C 34442.4 hPa Calm     83 % 0 mm
06:15 -6.8 °C -8.4 °C 34442.4 hPa Calm     83 % 0 mm
06:20 -6.7 °C -8.4 °C 34442.4 hPa Calm   2.6 km/h 83 % 0 mm
06:25 -6.6 °C -8.4 °C 34442.4 hPa SW 7.7 km/h 10.3 km/h 82 % 0 mm
06:30 -6.5 °C -8.4 °C 34442.4 hPa Calm   10.3 km/h 81 % 0 mm
06:35 -6.4 °C -8.3 °C 34442.4 hPa Calm     81 % 0 mm
06:40 -6.4 °C -8.4 °C 34442.4 hPa Calm     80 % 0 mm
06:45 -6.3 °C -8.3 °C 34442.4 hPa Calm   2.6 km/h 80 % 0 mm
06:50 -6.3 °C -8.3 °C 34442.4 hPa Calm     80 % 0 mm
06:55 -6.3 °C -8.4 °C 34452.6 hPa Calm     79 % 0 mm
07:00 -6.3 °C -8.4 °C 34452.6 hPa NW 10.3 km/h 18.2 km/h 79 % 0 mm
07:05 -6.3 °C -8.4 °C 34452.6 hPa North 10.3 km/h 18.2 km/h 79 % 0 mm
07:10 -6.4 °C -8.5 °C 34452.6 hPa NW 10.3 km/h 15.6 km/h 79 % 0 mm
07:15 -6.4 °C -8.4 °C 34452.6 hPa Calm   10.3 km/h 80 % 0 mm
07:20 -6.3 °C -8.4 °C 34452.6 hPa NW 10.3 km/h 12.9 km/h 80 % 0 mm
07:25 -6.2 °C -8.4 °C 34452.6 hPa West 12.9 km/h 18.2 km/h 79 % 0 mm
07:30 -6 °C -8.2 °C 34452.6 hPa WNW 12.9 km/h 25.9 km/h 78 % 0 mm
07:35 -5.8 °C -8.2 °C 34452.6 hPa Calm   18.2 km/h 77 % 0 mm
07:40 -5.6 °C -8.2 °C 34452.6 hPa West 12.9 km/h 23.3 km/h 75 % 0 mm
07:45 -5.4 °C -8.2 °C 34452.6 hPa WSW 18.2 km/h 18.2 km/h 74 % 0 mm
07:50 -5.3 °C -8.2 °C 34452.6 hPa WNW 7.7 km/h 18.2 km/h 73 % 0 mm
07:55 -5.2 °C -8.2 °C 34452.6 hPa WSW 12.9 km/h 23.3 km/h 72 % 0 mm
08:00 -5.1 °C -8.2 °C 34452.6 hPa Calm   23.3 km/h 71 % 0 mm
08:05 -4.9 °C -8 °C 34462.7 hPa WNW 5.1 km/h 15.6 km/h 71 % 0 mm
08:10 -4.8 °C -8.1 °C 34462.7 hPa Calm   15.6 km/h 70 % 0 mm
08:15 -4.8 °C -8 °C 34462.7 hPa Calm   23.3 km/h 70 % 0 mm
08:20 -4.6 °C -7.9 °C 34462.7 hPa NW 12.9 km/h 12.9 km/h 70 % 0 mm
08:25 -4.6 °C -7.9 °C 34462.7 hPa West 12.9 km/h 15.6 km/h 69 % 0 mm
08:30 -4.5 °C -7.9 °C 34462.7 hPa West 10.3 km/h 15.6 km/h 69 % 0 mm
08:35 -4.4 °C -7.8 °C 34462.7 hPa WNW 7.7 km/h 23.3 km/h 69 % 0 mm
08:40 -4.4 °C -7.8 °C 34462.7 hPa NW 7.7 km/h 20.8 km/h 69 % 0 mm
08:45 -4.3 °C -7.7 °C 34462.7 hPa Calm   12.9 km/h 69 % 0 mm
08:50 -4.2 °C -7.7 °C 34462.7 hPa Calm   15.6 km/h 68 % 0 mm
08:55 -4.1 °C -7.7 °C 34462.7 hPa Calm   18.2 km/h 67 % 0 mm
09:00 -4 °C -7.7 °C 34462.7 hPa WSW 12.9 km/h 18.2 km/h 67 % 0 mm
09:05 -3.9 °C -7.7 °C 34462.7 hPa Calm   15.6 km/h 66 % 0 mm
09:10 -3.8 °C -7.7 °C 34462.7 hPa Calm   2.6 km/h 66 % 0 mm
09:15 -3.8 °C -8 °C 34462.7 hPa Calm   15.6 km/h 63 % 0 mm
09:20 -3.7 °C -7.9 °C 34462.7 hPa Calm   7.7 km/h 63 % 0 mm
09:25 -3.5 °C -7.9 °C 34462.7 hPa Calm   15.6 km/h 62 % 0 mm
09:30 -3.3 °C -7.8 °C 34462.7 hPa Calm   15.6 km/h 61 % 0 mm
09:35 -3.2 °C -7.7 °C 34462.7 hPa Calm   15.6 km/h 61 % 0 mm
09:40 -3.1 °C -7.9 °C 34462.7 hPa Calm   15.6 km/h 59 % 0 mm
09:45 -3.1 °C -7.8 °C 34462.7 hPa NW 10.3 km/h 12.9 km/h 60 % 0 mm
09:50 -3 °C -8 °C 34462.7 hPa Calm   15.6 km/h 58 % 0 mm
09:55 -2.9 °C -8.3 °C 34462.7 hPa Calm   18.2 km/h 56 % 0 mm
10:00 -2.8 °C -8.3 °C 34462.7 hPa Calm   15.6 km/h 55 % 0 mm
10:05 -2.7 °C -8.2 °C 34462.7 hPa Calm   10.3 km/h 55 % 0 mm
10:10 -2.6 °C -7.3 °C 34462.7 hPa Calm     60 % 0 mm
10:15 -2.4 °C -7.1 °C 34462.7 hPa Calm     60 % 0 mm
10:20 -2.3 °C -7.2 °C 34462.7 hPa Calm     59 % 0 mm
10:25 -2.4 °C -7.7 °C 34462.7 hPa Calm     56 % 0 mm
10:30 -2.5 °C -7.6 °C 34462.7 hPa Calm     58 % 0 mm
10:35 -2.6 °C -7.3 °C 34476.3 hPa Calm     60 % 0 mm
10:40 -2.6 °C -7.5 °C 34476.3 hPa Calm     59 % 0 mm
10:45 -2.6 °C -7.3 °C 34476.3 hPa Calm     60 % 0 mm
10:50 -2.6 °C -7.1 °C 34476.3 hPa Calm     61 % 0 mm
10:55 -2.6 °C -7.1 °C 34476.3 hPa Calm     61 % 0 mm
11:00 -2.7 °C -7.1 °C 34476.3 hPa Calm   2.6 km/h 62 % 0 mm
11:05 -2.8 °C -7.4 °C 34476.3 hPa Calm   2.6 km/h 61 % 0 mm
11:10 -2.8 °C -7.4 °C 34476.3 hPa Calm   2.6 km/h 61 % 0 mm
11:15 -2.8 °C -7.1 °C 34476.3 hPa Calm   2.6 km/h 63 % 0 mm
11:20 -2.8 °C -7.1 °C 34476.3 hPa Calm   2.6 km/h 63 % 0 mm
11:25 -2.9 °C -7.1 °C 34462.7 hPa Calm   10.3 km/h 64 % 0 mm
11:30 -2.9 °C -6.9 °C 34476.3 hPa Calm   10.3 km/h 65 % 0 mm
11:35 -2.8 °C -6.9 °C 34476.3 hPa Calm     64 % 0 mm
11:40 -2.6 °C -6.8 °C 34476.3 hPa Calm     64 % 0 mm
11:45 -2.6 °C -6.8 °C 34476.3 hPa Calm   2.6 km/h 63 % 0 mm
11:50 -2.5 °C -6.9 °C 34476.3 hPa North 2.6 km/h 23.3 km/h 62 % 0 mm
11:55 -2.6 °C -6.6 °C 34476.3 hPa North 7.7 km/h 20.8 km/h 65 % 0 mm
12:00 -2.7 °C -6.5 °C 34486.4 hPa Calm   18.2 km/h 67 % 0 mm
12:05 -2.9 °C -6.6 °C 34486.4 hPa Calm   15.6 km/h 68 % 0 mm
12:10 -3.2 °C -6.8 °C 34486.4 hPa NNE 5.1 km/h 23.3 km/h 68 % 0 mm
12:15 -3.4 °C -6.8 °C 34486.4 hPa Calm   25.9 km/h 69 % 0 mm
12:20 -3.4 °C -6.7 °C 34486.4 hPa Calm   23.3 km/h 70 % 0 mm
12:25 -3.3 °C -6.3 °C 34486.4 hPa North 12.9 km/h 18.2 km/h 72 % 0 mm
12:30 -3.3 °C -6.5 °C 34486.4 hPa Calm   23.3 km/h 71 % 0 mm
12:35 -3.3 °C -6.5 °C 34486.4 hPa Calm   18.2 km/h 71 % 0 mm
12:40 -3.3 °C -6.4 °C 34476.3 hPa Calm   10.3 km/h 71 % 0 mm
12:45 -3.2 °C -6.3 °C 34476.3 hPa Calm   12.9 km/h 72 % 0 mm
12:50 -3.2 °C -6.6 °C 34476.3 hPa North 7.7 km/h 18.2 km/h 70 % 0 mm
12:55 -3.2 °C -6.4 °C 34476.3 hPa Calm   23.3 km/h 71 % 0 mm
13:00 -3.2 °C -6.3 °C 34476.3 hPa Calm   12.9 km/h 71 % 0 mm
13:05 -3.2 °C -6.4 °C 34476.3 hPa Calm   18.2 km/h 70 % 0 mm
13:10 -3.1 °C -6.4 °C 34476.3 hPa Calm   15.6 km/h 70 % 0 mm
13:15 -3 °C -6.3 °C 34476.3 hPa Calm   12.9 km/h 70 % 0 mm
13:20 -2.9 °C -6.3 °C 34486.4 hPa Calm   2.6 km/h 70 % 0 mm
13:25 -2.9 °C -6.2 °C 34476.3 hPa Calm   7.7 km/h 70 % 0 mm
13:30 -2.9 °C -6.3 °C 34476.3 hPa Calm   15.6 km/h 69 % 0 mm
13:35 -2.9 °C -6.2 °C 34476.3 hPa Calm   10.3 km/h 70 % 0 mm
13:40 -2.9 °C -6.3 °C 34476.3 hPa Calm   2.6 km/h 70 % 0 mm
13:45 -3 °C -6.3 °C 34476.3 hPa Calm   15.6 km/h 70 % 0 mm
13:50 -3 °C -6.3 °C 34476.3 hPa North 2.6 km/h 7.7 km/h 70 % 0 mm
13:55 -2.9 °C -6.2 °C 34476.3 hPa Calm   18.2 km/h 71 % 0 mm
14:00 -2.9 °C -6.3 °C 34476.3 hPa Calm   2.6 km/h 70 % 0 mm
14:05 -2.9 °C -6.3 °C 34476.3 hPa Calm   15.6 km/h 70 % 0 mm
14:10 -2.9 °C -6.3 °C 34476.3 hPa Calm   15.6 km/h 69 % 0 mm
14:15 -2.9 °C -6.2 °C 34476.3 hPa North 12.9 km/h 18.2 km/h 70 % 0 mm
14:20 -2.9 °C -6.2 °C 34476.3 hPa Calm   12.9 km/h 70 % 0 mm
14:25 -2.9 °C -6.3 °C 34476.3 hPa North 7.7 km/h 12.9 km/h 70 % 0 mm
14:30 -3.1 °C -6.2 °C 34476.3 hPa Calm   23.3 km/h 71 % 0 mm
14:35 -3.1 °C -6.4 °C 34476.3 hPa Calm   28.5 km/h 70 % 0 mm
14:40 -3.1 °C -6.3 °C 34476.3 hPa NNW 7.7 km/h 12.9 km/h 70 % 0 mm
14:45 -3 °C -6.6 °C 34476.3 hPa Calm   5.1 km/h 68 % 0 mm
14:50 -2.9 °C -6.6 °C 34476.3 hPa NNW 15.6 km/h 23.3 km/h 67 % 0 mm
14:55 -2.9 °C -6.6 °C 34476.3 hPa Calm   10.3 km/h 67 % 0 mm
15:00 -2.8 °C -6.5 °C 34476.3 hPa North 12.9 km/h 18.2 km/h 67 % 0 mm
15:05 -2.8 °C -6.6 °C 34476.3 hPa Calm   18.2 km/h 67 % 0 mm
15:10 -2.9 °C -6.8 °C 34476.3 hPa Calm   25.9 km/h 66 % 0 mm
15:15 -2.9 °C -6.8 °C 34476.3 hPa NNE 12.9 km/h 23.3 km/h 66 % 0 mm
15:20 -2.9 °C -6.7 °C 34476.3 hPa Calm   25.9 km/h 67 % 0 mm
15:25 -2.9 °C -6.8 °C 34476.3 hPa Calm   28.5 km/h 66 % 0 mm
15:30 -3 °C -6.8 °C 34476.3 hPa Calm   10.3 km/h 66 % 0 mm
15:35 -3.1 °C -6.9 °C 34476.3 hPa Calm   28.5 km/h 66 % 0 mm
15:40 -3.1 °C -6.9 °C 34476.3 hPa Calm   23.3 km/h 66 % 0 mm
15:45 -3 °C -6.7 °C 34476.3 hPa Calm   23.3 km/h 67 % 0 mm
15:50 -2.9 °C -6.8 °C 34476.3 hPa North 15.6 km/h 20.8 km/h 66 % 0 mm
15:55 -2.9 °C -6.6 °C 34476.3 hPa Calm   25.9 km/h 67 % 0 mm
16:00 -2.9 °C -6.7 °C 34476.3 hPa North 18.2 km/h 20.8 km/h 67 % 0 mm
16:05 -3.1 °C -6.8 °C 34462.7 hPa Calm   28.5 km/h 67 % 0 mm
16:10 -3.2 °C -6.8 °C 34476.3 hPa Calm   25.9 km/h 67 % 0 mm
16:15 -3.2 °C -6.9 °C 34462.7 hPa Calm   20.8 km/h 67 % 0 mm
16:20 -3.2 °C -6.9 °C 34462.7 hPa North 12.9 km/h 20.8 km/h 67 % 0 mm
16:25 -3.1 °C -6.7 °C 34462.7 hPa NW 15.6 km/h 18.2 km/h 68 % 0 mm
16:30 -3.1 °C -6.7 °C 34462.7 hPa North 5.1 km/h 18.2 km/h 68 % 0 mm
16:35 -3.1 °C -6.7 °C 34462.7 hPa North 12.9 km/h 12.9 km/h 68 % 0 mm
16:40 -3.1 °C -6.7 °C 34462.7 hPa Calm   12.9 km/h 68 % 0 mm
16:45 -3.1 °C -6.6 °C 34462.7 hPa Calm   18.2 km/h 69 % 0 mm
16:50 -3.1 °C -6.6 °C 34462.7 hPa North 10.3 km/h 25.9 km/h 69 % 0 mm
16:55 -3.2 °C -6.6 °C 34462.7 hPa Calm   23.3 km/h 70 % 0 mm
17:00 -3.3 °C -6.5 °C 34462.7 hPa Calm   20.8 km/h 71 % 0 mm
17:05 -3.3 °C -6.5 °C 34462.7 hPa North 2.6 km/h 12.9 km/h 71 % 0 mm
17:10 -3.4 °C -6.6 °C 34462.7 hPa North 10.3 km/h 25.9 km/h 71 % 0 mm
17:15 -3.4 °C -6.6 °C 34462.7 hPa Calm   15.6 km/h 71 % 0 mm
17:20 -3.4 °C -6.6 °C 34462.7 hPa NNE 12.9 km/h 15.6 km/h 71 % 0 mm
17:25 -3.4 °C -6.4 °C 34462.7 hPa Calm   18.2 km/h 72 % 0 mm
17:30 -3.3 °C -6.3 °C 34462.7 hPa Calm   12.9 km/h 72 % 0 mm
17:35 -3.2 °C -6.3 °C 34462.7 hPa Calm   15.6 km/h 71 % 0 mm
17:40 -3.2 °C -6.4 °C 34462.7 hPa North 12.9 km/h 18.2 km/h 71 % 0 mm
17:45 -3.3 °C -6.5 °C 34462.7 hPa Calm   15.6 km/h 71 % 0 mm
17:50 -3.3 °C -6.4 °C 34462.7 hPa NNE 2.6 km/h 18.2 km/h 71 % 0 mm
Stazione meteorologica di Tortoreto (TE)
complimenti di Weather Underground - 3.5 mb

Script sviluppato da  Jim McMurry - jmcmurry@mwt.net Adattato per il modello da  Wim van der Kuil - Leuven-Template.eu

Potete trovare le nostre info meteo anche a:

European Weather Network

Weather Underground

AWEKAS

Citizen Weather Observer Program (CWOP)

HAMweather, WeatherForYou, PWS Weather

Strumentazione usata:

Stazione meteo
Davis VP2

Programma gestore dati meteo
WVIEW

Server per i dati meteo
My Computer

Provider
My provider

Davis VP2

WVIEW

My Computer

My provider